Year,Month,Day,Hour,Minute,Value (Times are PST for temperature in C)
2014,09,24,00,00,14.60
2014,09,24,00,01,14.60
2014,09,24,00,02,14.60
2014,09,24,00,03,14.60
2014,09,24,00,04,14.60
2014,09,24,00,05,14.60
2014,09,24,00,06,14.60
2014,09,24,00,07,14.60
2014,09,24,00,08,14.60
2014,09,24,00,09,14.60
2014,09,24,00,10,14.60
2014,09,24,00,11,14.60
2014,09,24,00,12,14.60
2014,09,24,00,13,14.60
2014,09,24,00,14,14.60
2014,09,24,00,15,14.60
2014,09,24,00,16,14.60
2014,09,24,00,17,14.60
2014,09,24,00,18,14.60
2014,09,24,00,19,14.60
2014,09,24,00,20,14.60
2014,09,24,00,21,14.60
2014,09,24,00,22,14.60
2014,09,24,00,23,14.60
2014,09,24,00,24,14.60
2014,09,24,00,25,14.60
2014,09,24,00,26,14.60
2014,09,24,00,27,14.60
2014,09,24,00,28,14.60
2014,09,24,00,29,14.60
2014,09,24,00,30,14.60
2014,09,24,00,31,14.60
2014,09,24,00,32,14.60
2014,09,24,00,33,14.60
2014,09,24,00,34,14.60
2014,09,24,00,35,14.50
2014,09,24,00,36,14.50
2014,09,24,00,37,14.50
2014,09,24,00,38,14.50
2014,09,24,00,39,14.50
2014,09,24,00,40,14.50
2014,09,24,00,41,14.50
2014,09,24,00,42,14.50
2014,09,24,00,43,14.50
2014,09,24,00,44,14.50
2014,09,24,00,45,14.50
2014,09,24,00,46,14.50
2014,09,24,00,47,14.50
2014,09,24,00,48,14.50
2014,09,24,00,49,14.50
2014,09,24,00,50,14.50
2014,09,24,00,51,14.50
2014,09,24,00,52,14.50
2014,09,24,00,53,14.50
2014,09,24,00,54,14.50
2014,09,24,00,55,14.50
2014,09,24,00,56,14.40
2014,09,24,00,57,14.40
2014,09,24,00,58,14.50
2014,09,24,00,59,14.40
2014,09,24,01,00,14.40
2014,09,24,01,01,14.40
2014,09,24,01,02,14.40
2014,09,24,01,03,14.40
2014,09,24,01,04,14.40
2014,09,24,01,05,14.40
2014,09,24,01,06,14.40
2014,09,24,01,07,14.40
2014,09,24,01,08,14.40
2014,09,24,01,09,14.40
2014,09,24,01,10,14.40
2014,09,24,01,11,14.40
2014,09,24,01,12,14.40
2014,09,24,01,13,14.40
2014,09,24,01,14,14.40
2014,09,24,01,15,14.40
2014,09,24,01,16,14.40
2014,09,24,01,17,14.50
2014,09,24,01,18,14.50
2014,09,24,01,19,14.50
2014,09,24,01,20,14.50
2014,09,24,01,21,14.50
2014,09,24,01,22,14.50
2014,09,24,01,23,14.40
2014,09,24,01,24,14.50
2014,09,24,01,25,14.50
2014,09,24,01,26,14.50
2014,09,24,01,27,14.50
2014,09,24,01,28,14.50
2014,09,24,01,29,14.50
2014,09,24,01,30,14.50
2014,09,24,01,31,14.50
2014,09,24,01,32,14.50
2014,09,24,01,33,14.50
2014,09,24,01,34,14.50
2014,09,24,01,35,14.50
2014,09,24,01,36,14.50
2014,09,24,01,37,14.50
2014,09,24,01,38,14.60
2014,09,24,01,39,14.60
2014,09,24,01,40,14.60
2014,09,24,01,41,14.60
2014,09,24,01,42,14.60
2014,09,24,01,43,14.60
2014,09,24,01,44,14.60
2014,09,24,01,45,14.60
2014,09,24,01,46,14.60
2014,09,24,01,47,14.60
2014,09,24,01,48,14.60
2014,09,24,01,49,14.60
2014,09,24,01,50,14.60
2014,09,24,01,51,14.60
2014,09,24,01,52,14.60
2014,09,24,01,53,14.60
2014,09,24,01,54,14.60
2014,09,24,01,55,14.60
2014,09,24,01,56,14.60
2014,09,24,01,57,14.60
2014,09,24,01,58,14.60
2014,09,24,01,59,14.60
2014,09,24,02,00,14.60
2014,09,24,02,01,14.60
2014,09,24,02,02,14.60
2014,09,24,02,03,14.60
2014,09,24,02,04,14.60
2014,09,24,02,05,14.60
2014,09,24,02,06,14.60
2014,09,24,02,07,14.60
2014,09,24,02,08,14.70
2014,09,24,02,09,14.70
2014,09,24,02,10,14.70
2014,09,24,02,11,14.70
2014,09,24,02,12,14.70
2014,09,24,02,13,14.70
2014,09,24,02,14,14.70
2014,09,24,02,15,14.70
2014,09,24,02,16,14.80
2014,09,24,02,17,14.80
2014,09,24,02,18,14.80
2014,09,24,02,19,14.80
2014,09,24,02,20,14.80
2014,09,24,02,21,14.80
2014,09,24,02,22,14.80
2014,09,24,02,23,14.80
2014,09,24,02,24,14.80
2014,09,24,02,25,14.80
2014,09,24,02,26,14.80
2014,09,24,02,27,14.80
2014,09,24,02,28,14.80
2014,09,24,02,29,14.80
2014,09,24,02,30,14.80
2014,09,24,02,31,14.80
2014,09,24,02,32,14.80
2014,09,24,02,33,14.80
2014,09,24,02,34,14.80
2014,09,24,02,35,14.90
2014,09,24,02,36,14.90
2014,09,24,02,37,14.90
2014,09,24,02,38,14.90
2014,09,24,02,39,14.90
2014,09,24,02,40,14.90
2014,09,24,02,41,14.90
2014,09,24,02,42,14.90
2014,09,24,02,43,14.90
2014,09,24,02,44,14.90
2014,09,24,02,45,14.90
2014,09,24,02,46,14.90
2014,09,24,02,47,14.90
2014,09,24,02,48,14.90
2014,09,24,02,49,14.90
2014,09,24,02,50,14.90
2014,09,24,02,51,14.90
2014,09,24,02,52,14.90
2014,09,24,02,53,14.90
2014,09,24,02,54,14.90
2014,09,24,02,55,14.90
2014,09,24,02,56,14.90
2014,09,24,02,57,14.90
2014,09,24,02,58,14.90
2014,09,24,02,59,14.90
2014,09,24,03,00,14.90
2014,09,24,03,01,14.90
2014,09,24,03,02,14.90
2014,09,24,03,03,14.90
2014,09,24,03,04,15.00
2014,09,24,03,05,15.00
2014,09,24,03,06,15.00
2014,09,24,03,07,15.00
2014,09,24,03,08,15.00
2014,09,24,03,09,15.00
2014,09,24,03,10,15.00
2014,09,24,03,11,15.00
2014,09,24,03,12,15.00
2014,09,24,03,13,15.00
2014,09,24,03,14,15.00
2014,09,24,03,15,15.00
2014,09,24,03,16,15.00
2014,09,24,03,17,15.00
2014,09,24,03,18,15.00
2014,09,24,03,19,15.00
2014,09,24,03,20,15.00
2014,09,24,03,21,15.00
2014,09,24,03,22,15.00
2014,09,24,03,23,15.00
2014,09,24,03,24,15.00
2014,09,24,03,25,15.00
2014,09,24,03,26,15.00
2014,09,24,03,27,15.00
2014,09,24,03,28,15.00
2014,09,24,03,29,15.00
2014,09,24,03,30,15.00
2014,09,24,03,31,15.00
2014,09,24,03,32,15.00
2014,09,24,03,33,15.00
2014,09,24,03,34,15.00
2014,09,24,03,35,15.00
2014,09,24,03,36,15.00
2014,09,24,03,37,15.00
2014,09,24,03,38,15.00
2014,09,24,03,39,15.00
2014,09,24,03,40,15.00
2014,09,24,03,41,15.00
2014,09,24,03,42,15.00
2014,09,24,03,43,15.00
2014,09,24,03,44,15.00
2014,09,24,03,45,15.00
2014,09,24,03,46,15.00
2014,09,24,03,47,15.00
2014,09,24,03,48,15.00
2014,09,24,03,49,15.00
2014,09,24,03,50,15.00
2014,09,24,03,51,15.00
2014,09,24,03,52,15.00
2014,09,24,03,53,15.00
2014,09,24,03,54,15.00
2014,09,24,03,55,15.00
2014,09,24,03,56,15.00
2014,09,24,03,57,15.00
2014,09,24,03,58,15.00
2014,09,24,03,59,15.00
2014,09,24,04,00,15.00
2014,09,24,04,01,15.00
2014,09,24,04,02,15.00
2014,09,24,04,03,15.00
2014,09,24,04,04,15.00
2014,09,24,04,05,15.00
2014,09,24,04,06,15.00
2014,09,24,04,07,15.00
2014,09,24,04,08,15.00
2014,09,24,04,09,15.00
2014,09,24,04,10,15.00
2014,09,24,04,11,15.00
2014,09,24,04,12,15.00
2014,09,24,04,13,15.00
2014,09,24,04,14,15.00
2014,09,24,04,15,15.00
2014,09,24,04,16,15.00
2014,09,24,04,17,15.00
2014,09,24,04,18,15.00
2014,09,24,04,19,15.00
2014,09,24,04,20,15.00
2014,09,24,04,21,15.00
2014,09,24,04,22,15.00
2014,09,24,04,23,15.00
2014,09,24,04,24,15.00
2014,09,24,04,25,15.00
2014,09,24,04,26,15.00
2014,09,24,04,27,15.00
2014,09,24,04,28,15.00
2014,09,24,04,29,15.00
2014,09,24,04,30,15.00
2014,09,24,04,31,15.00
2014,09,24,04,32,15.00
2014,09,24,04,33,15.00
2014,09,24,04,34,15.00
2014,09,24,04,35,15.00
2014,09,24,04,36,15.00
2014,09,24,04,37,15.00
2014,09,24,04,38,15.00
2014,09,24,04,39,15.00
2014,09,24,04,40,15.00
2014,09,24,04,41,15.00
2014,09,24,04,42,15.00
2014,09,24,04,43,15.00
2014,09,24,04,44,15.00
2014,09,24,04,45,15.00
2014,09,24,04,46,15.00
2014,09,24,04,47,15.00
2014,09,24,04,48,15.00
2014,09,24,04,49,15.00
2014,09,24,04,50,15.00
2014,09,24,04,51,15.00
2014,09,24,04,52,15.00
2014,09,24,04,53,15.00
2014,09,24,04,54,15.00
2014,09,24,04,55,15.00
2014,09,24,04,56,15.00
2014,09,24,04,57,15.00
2014,09,24,04,58,15.00
2014,09,24,04,59,15.00
2014,09,24,05,00,15.00
2014,09,24,05,01,15.00
2014,09,24,05,02,15.00
2014,09,24,05,03,15.00
2014,09,24,05,04,15.00
2014,09,24,05,05,15.00
2014,09,24,05,06,15.00
2014,09,24,05,07,15.00
2014,09,24,05,08,15.00
2014,09,24,05,09,15.00
2014,09,24,05,10,15.00
2014,09,24,05,11,15.00
2014,09,24,05,12,15.00
2014,09,24,05,13,15.00
2014,09,24,05,14,15.00
2014,09,24,05,15,15.00
2014,09,24,05,16,15.00
2014,09,24,05,17,15.00
2014,09,24,05,18,15.00
2014,09,24,05,19,15.00
2014,09,24,05,20,15.00
2014,09,24,05,21,15.00
2014,09,24,05,22,15.00
2014,09,24,05,23,15.00
2014,09,24,05,24,15.00
2014,09,24,05,25,15.00
2014,09,24,05,26,15.00
2014,09,24,05,27,15.00
2014,09,24,05,28,15.00
2014,09,24,05,29,15.00
2014,09,24,05,30,15.00
2014,09,24,05,31,15.00
2014,09,24,05,32,15.00
2014,09,24,05,33,15.00
2014,09,24,05,34,15.00
2014,09,24,05,35,15.00
2014,09,24,05,36,15.00
2014,09,24,05,37,15.00
2014,09,24,05,38,15.00
2014,09,24,05,39,15.00
2014,09,24,05,40,15.00
2014,09,24,05,41,15.00
2014,09,24,05,42,15.00
2014,09,24,05,43,15.00
2014,09,24,05,44,15.00
2014,09,24,05,45,15.00
2014,09,24,05,46,15.00
2014,09,24,05,47,15.00
2014,09,24,05,48,15.00
2014,09,24,05,49,15.00
2014,09,24,05,50,15.00
2014,09,24,05,51,15.00
2014,09,24,05,52,15.00
2014,09,24,05,53,15.00
2014,09,24,05,54,15.00
2014,09,24,05,55,15.00
2014,09,24,05,56,15.00
2014,09,24,05,57,15.00
2014,09,24,05,58,15.00
2014,09,24,05,59,15.00
2014,09,24,06,00,15.00
2014,09,24,06,01,15.00
2014,09,24,06,02,15.00
2014,09,24,06,03,15.00
2014,09,24,06,04,15.00
2014,09,24,06,05,15.00
2014,09,24,06,06,15.00
2014,09,24,06,07,15.00
2014,09,24,06,08,15.00
2014,09,24,06,09,15.00
2014,09,24,06,10,15.00
2014,09,24,06,11,15.00
2014,09,24,06,12,15.00
2014,09,24,06,13,15.00
2014,09,24,06,14,14.90
2014,09,24,06,15,14.90
2014,09,24,06,16,14.90
2014,09,24,06,17,14.80
2014,09,24,06,18,14.80
2014,09,24,06,19,14.80
2014,09,24,06,20,14.80
2014,09,24,06,21,14.80
2014,09,24,06,22,14.80
2014,09,24,06,23,14.80
2014,09,24,06,24,14.80
2014,09,24,06,25,14.80
2014,09,24,06,26,14.80
2014,09,24,06,27,14.80
2014,09,24,06,28,14.80
2014,09,24,06,29,14.80
2014,09,24,06,30,14.80
2014,09,24,06,31,14.80
2014,09,24,06,32,14.90
2014,09,24,06,33,14.90
2014,09,24,06,34,15.00
2014,09,24,06,35,15.00
2014,09,24,06,36,15.00
2014,09,24,06,37,15.00
2014,09,24,06,38,15.00
2014,09,24,06,39,15.00
2014,09,24,06,40,15.00
2014,09,24,06,41,15.10
2014,09,24,06,42,15.10
2014,09,24,06,43,15.10
2014,09,24,06,44,15.10
2014,09,24,06,45,15.10
2014,09,24,06,46,15.10
2014,09,24,06,47,15.00
2014,09,24,06,48,15.00
2014,09,24,06,49,15.00
2014,09,24,06,50,15.00
2014,09,24,06,51,15.00
2014,09,24,06,52,15.00
2014,09,24,06,53,15.00
2014,09,24,06,54,15.00
2014,09,24,06,55,15.00
2014,09,24,06,56,15.00
2014,09,24,06,57,15.00
2014,09,24,06,58,15.00
2014,09,24,06,59,15.00
2014,09,24,07,00,15.00
2014,09,24,07,01,15.00
2014,09,24,07,02,15.00
2014,09,24,07,03,15.00
2014,09,24,07,04,15.00
2014,09,24,07,05,15.00
2014,09,24,07,06,15.00
2014,09,24,07,07,15.00
2014,09,24,07,08,15.00
2014,09,24,07,09,15.00
2014,09,24,07,10,15.00
2014,09,24,07,11,15.00
2014,09,24,07,12,15.00
2014,09,24,07,13,15.00
2014,09,24,07,14,15.00
2014,09,24,07,15,15.00
2014,09,24,07,16,14.90
2014,09,24,07,17,14.90
2014,09,24,07,18,14.90
2014,09,24,07,19,14.90
2014,09,24,07,20,14.90
2014,09,24,07,21,14.90
2014,09,24,07,22,15.00
2014,09,24,07,23,15.00
2014,09,24,07,24,15.00
2014,09,24,07,25,15.00
2014,09,24,07,26,15.00
2014,09,24,07,27,15.00
2014,09,24,07,28,15.00
2014,09,24,07,29,15.00
2014,09,24,07,30,15.00
2014,09,24,07,31,15.00
2014,09,24,07,32,15.00
2014,09,24,07,33,15.00
2014,09,24,07,34,15.00
2014,09,24,07,35,15.00
2014,09,24,07,36,15.00
2014,09,24,07,37,15.00
2014,09,24,07,38,15.00
2014,09,24,07,39,15.00
2014,09,24,07,40,15.00
2014,09,24,07,41,15.00
2014,09,24,07,42,15.00
2014,09,24,07,43,15.00
2014,09,24,07,44,15.00
2014,09,24,07,45,15.00
2014,09,24,07,46,15.00
2014,09,24,07,47,15.00
2014,09,24,07,48,15.00
2014,09,24,07,49,15.00
2014,09,24,07,50,15.00
2014,09,24,07,51,15.00
2014,09,24,07,52,15.00
2014,09,24,07,53,15.00
2014,09,24,07,54,15.00
2014,09,24,07,55,15.00
2014,09,24,07,56,15.00
2014,09,24,07,57,15.00
2014,09,24,07,58,15.00
2014,09,24,07,59,15.00
2014,09,24,08,00,15.00
2014,09,24,08,01,15.00
2014,09,24,08,02,15.00
2014,09,24,08,03,15.00
2014,09,24,08,04,15.00
2014,09,24,08,05,15.00
2014,09,24,08,06,15.00
2014,09,24,08,07,15.00
2014,09,24,08,08,15.00
2014,09,24,08,09,14.90
2014,09,24,08,10,14.90
2014,09,24,08,11,14.90
2014,09,24,08,12,14.90
2014,09,24,08,13,14.90
2014,09,24,08,14,14.90
2014,09,24,08,15,14.90
2014,09,24,08,16,14.90
2014,09,24,08,17,14.90
2014,09,24,08,18,14.90
2014,09,24,08,19,14.80
2014,09,24,08,20,14.80
2014,09,24,08,21,14.80
2014,09,24,08,22,14.80
2014,09,24,08,23,14.80
2014,09,24,08,24,14.80
2014,09,24,08,25,14.80
2014,09,24,08,26,14.80
2014,09,24,08,27,14.80
2014,09,24,08,28,14.80
2014,09,24,08,29,14.80
2014,09,24,08,30,14.80
2014,09,24,08,31,14.80
2014,09,24,08,32,14.80
2014,09,24,08,33,14.80
2014,09,24,08,34,14.80
2014,09,24,08,35,14.80
2014,09,24,08,36,14.80
2014,09,24,08,37,14.80
2014,09,24,08,38,14.80
2014,09,24,08,39,14.80
2014,09,24,08,40,14.80
2014,09,24,08,41,14.90
2014,09,24,08,42,14.90
2014,09,24,08,43,14.90
2014,09,24,08,44,14.90
2014,09,24,08,45,14.90
2014,09,24,08,46,15.00
2014,09,24,08,47,15.00
2014,09,24,08,48,15.00
2014,09,24,08,49,15.00
2014,09,24,08,50,15.00
2014,09,24,08,51,15.00
2014,09,24,08,52,15.00
2014,09,24,08,53,14.90
2014,09,24,08,54,15.00
2014,09,24,08,55,15.00
2014,09,24,08,56,15.00
2014,09,24,08,57,15.00
2014,09,24,08,58,15.00
2014,09,24,08,59,15.00
2014,09,24,09,00,15.00
2014,09,24,09,01,15.00
2014,09,24,09,02,15.00
2014,09,24,09,03,15.00
2014,09,24,09,04,15.00
2014,09,24,09,05,15.00
2014,09,24,09,06,15.00
2014,09,24,09,07,15.00
2014,09,24,09,08,15.00
2014,09,24,09,09,15.00
2014,09,24,09,10,15.00
2014,09,24,09,11,15.00
2014,09,24,09,12,15.00
2014,09,24,09,13,15.00
2014,09,24,09,14,15.00
2014,09,24,09,15,15.00
2014,09,24,09,16,15.00
2014,09,24,09,17,15.00
2014,09,24,09,18,15.00
2014,09,24,09,19,15.00
2014,09,24,09,20,15.00
2014,09,24,09,21,15.00
2014,09,24,09,22,15.10
2014,09,24,09,23,15.10
2014,09,24,09,24,15.10
2014,09,24,09,25,15.20
2014,09,24,09,26,15.20
2014,09,24,09,27,15.20
2014,09,24,09,28,15.20
2014,09,24,09,29,15.20
2014,09,24,09,30,15.20
2014,09,24,09,31,15.20
2014,09,24,09,32,15.20
2014,09,24,09,33,15.20
2014,09,24,09,34,15.20
2014,09,24,09,35,15.20
2014,09,24,09,36,15.20
2014,09,24,09,37,15.20
2014,09,24,09,38,15.20
2014,09,24,09,39,15.20
2014,09,24,09,40,15.20
2014,09,24,09,41,15.20
2014,09,24,09,42,15.20
2014,09,24,09,43,15.20
2014,09,24,09,44,15.20
2014,09,24,09,45,15.10
2014,09,24,09,46,15.10
2014,09,24,09,47,15.00
2014,09,24,09,48,15.10
2014,09,24,09,49,15.00
2014,09,24,09,50,15.10
2014,09,24,09,51,15.10
2014,09,24,09,52,15.10
2014,09,24,09,53,15.10
2014,09,24,09,54,15.20
2014,09,24,09,55,15.20
2014,09,24,09,56,15.20
2014,09,24,09,57,15.30
2014,09,24,09,58,15.30
2014,09,24,09,59,15.30
2014,09,24,10,00,15.30
2014,09,24,10,01,15.30
2014,09,24,10,02,15.30
2014,09,24,10,03,15.30
2014,09,24,10,04,15.30
2014,09,24,10,05,15.30
2014,09,24,10,06,15.40
2014,09,24,10,07,15.40
2014,09,24,10,08,15.40
2014,09,24,10,09,15.40
2014,09,24,10,10,15.50
2014,09,24,10,11,15.50
2014,09,24,10,12,15.60
2014,09,24,10,13,15.60
2014,09,24,10,14,15.60
2014,09,24,10,15,15.60
2014,09,24,10,16,15.60
2014,09,24,10,17,15.60
2014,09,24,10,18,15.70
2014,09,24,10,19,15.60
2014,09,24,10,20,15.70
2014,09,24,10,21,15.70
2014,09,24,10,22,15.70
2014,09,24,10,23,15.70
2014,09,24,10,24,15.70
2014,09,24,10,25,15.70
2014,09,24,10,26,15.70
2014,09,24,10,27,15.70
2014,09,24,10,28,15.70
2014,09,24,10,29,15.70
2014,09,24,10,30,15.70
2014,09,24,10,31,15.80
2014,09,24,10,32,15.80
2014,09,24,10,33,15.80
2014,09,24,10,34,15.80
2014,09,24,10,35,15.80
2014,09,24,10,36,15.90
2014,09,24,10,37,15.90
2014,09,24,10,38,15.90
2014,09,24,10,39,15.90
2014,09,24,10,40,15.90
2014,09,24,10,41,16.00
2014,09,24,10,42,16.00
2014,09,24,10,43,16.10
2014,09,24,10,44,16.10
2014,09,24,10,45,16.10
2014,09,24,10,46,16.10
2014,09,24,10,47,16.20
2014,09,24,10,48,16.20
2014,09,24,10,49,16.30
2014,09,24,10,50,16.30
2014,09,24,10,51,16.40
2014,09,24,10,52,16.40
2014,09,24,10,53,16.40
2014,09,24,10,54,16.50
2014,09,24,10,55,16.60
2014,09,24,10,56,16.60
2014,09,24,10,57,16.70
2014,09,24,10,58,16.70
2014,09,24,10,59,16.80
2014,09,24,11,00,16.80
2014,09,24,11,01,16.80
2014,09,24,11,02,16.90
2014,09,24,11,03,16.90
2014,09,24,11,04,16.90
2014,09,24,11,05,17.00
2014,09,24,11,06,17.10
2014,09,24,11,07,17.10
2014,09,24,11,08,17.10
2014,09,24,11,09,17.20
2014,09,24,11,10,17.20
2014,09,24,11,11,17.30
2014,09,24,11,12,17.30
2014,09,24,11,13,17.30
2014,09,24,11,14,17.40
2014,09,24,11,15,17.40
2014,09,24,11,16,17.40
2014,09,24,11,17,17.40
2014,09,24,11,18,17.50
2014,09,24,11,19,17.50
2014,09,24,11,20,17.50
2014,09,24,11,21,17.60
2014,09,24,11,22,17.60
2014,09,24,11,23,17.60
2014,09,24,11,24,17.70
2014,09,24,11,25,17.70
2014,09,24,11,26,17.80
2014,09,24,11,27,17.80
2014,09,24,11,28,17.80
2014,09,24,11,29,17.80
2014,09,24,11,30,17.90
2014,09,24,11,31,17.90
2014,09,24,11,32,17.90
2014,09,24,11,33,17.90
2014,09,24,11,34,17.90
2014,09,24,11,35,18.00
2014,09,24,11,36,17.90
2014,09,24,11,37,18.00
2014,09,24,11,38,17.90
2014,09,24,11,39,18.00
2014,09,24,11,40,18.00
2014,09,24,11,41,18.00
2014,09,24,11,42,18.00
2014,09,24,11,43,18.00
2014,09,24,11,44,18.10
2014,09,24,11,45,18.20
2014,09,24,11,46,18.20
2014,09,24,11,47,18.40
2014,09,24,11,48,18.50
2014,09,24,11,49,18.60
2014,09,24,11,50,18.60
2014,09,24,11,51,18.70
2014,09,24,11,52,18.70
2014,09,24,11,53,18.70
2014,09,24,11,54,18.70
2014,09,24,11,55,18.70
2014,09,24,11,56,18.70
2014,09,24,11,57,18.60
2014,09,24,11,58,18.60
2014,09,24,11,59,18.60
2014,09,24,12,00,18.70
2014,09,24,12,01,18.70
2014,09,24,12,02,18.80
2014,09,24,12,03,18.90
2014,09,24,12,04,18.90
2014,09,24,12,05,18.90
2014,09,24,12,06,18.80
2014,09,24,12,07,18.80
2014,09,24,12,08,18.80
2014,09,24,12,09,18.90
2014,09,24,12,10,19.00
2014,09,24,12,11,19.10
2014,09,24,12,12,19.20
2014,09,24,12,13,19.30
2014,09,24,12,14,19.40
2014,09,24,12,15,19.40
2014,09,24,12,16,19.30
2014,09,24,12,17,19.10
2014,09,24,12,18,19.10
2014,09,24,12,19,19.00
2014,09,24,12,20,19.00
2014,09,24,12,21,19.00
2014,09,24,12,22,19.10
2014,09,24,12,23,19.10
2014,09,24,12,24,19.10
2014,09,24,12,25,19.10
2014,09,24,12,26,19.00
2014,09,24,12,27,18.90
2014,09,24,12,28,18.80
2014,09,24,12,29,18.70
2014,09,24,12,30,18.70
2014,09,24,12,31,18.70
2014,09,24,12,32,18.70
2014,09,24,12,33,18.70
2014,09,24,12,34,18.70
2014,09,24,12,35,18.80
2014,09,24,12,36,18.80
2014,09,24,12,37,18.80
2014,09,24,12,38,18.70
2014,09,24,12,39,18.70
2014,09,24,12,40,18.70
2014,09,24,12,41,18.70
2014,09,24,12,42,18.70
2014,09,24,12,43,18.80
2014,09,24,12,44,18.80
2014,09,24,12,45,18.80
2014,09,24,12,46,18.70
2014,09,24,12,47,18.60
2014,09,24,12,48,18.50
2014,09,24,12,49,18.30
2014,09,24,12,50,18.20
2014,09,24,12,51,18.00
2014,09,24,12,52,18.00
2014,09,24,12,53,18.00
2014,09,24,12,54,18.00
2014,09,24,12,55,17.90
2014,09,24,12,56,17.90
2014,09,24,12,57,17.90
2014,09,24,12,58,17.80
2014,09,24,12,59,17.80
2014,09,24,13,00,17.70
2014,09,24,13,01,17.70
2014,09,24,13,02,17.70
2014,09,24,13,03,17.70
2014,09,24,13,04,17.60
2014,09,24,13,05,17.60
2014,09,24,13,06,17.50
2014,09,24,13,07,17.40
2014,09,24,13,08,17.40
2014,09,24,13,09,17.40
2014,09,24,13,10,17.30
2014,09,24,13,11,17.30
2014,09,24,13,12,17.20
2014,09,24,13,13,17.10
2014,09,24,13,14,17.10
2014,09,24,13,15,17.10
2014,09,24,13,16,17.00
2014,09,24,13,17,17.10
2014,09,24,13,18,17.10
2014,09,24,13,19,17.20
2014,09,24,13,20,17.30
2014,09,24,13,21,17.30
2014,09,24,13,22,17.30
2014,09,24,13,23,17.30
2014,09,24,13,24,17.30
2014,09,24,13,25,17.30
2014,09,24,13,26,17.20
2014,09,24,13,27,17.20
2014,09,24,13,28,17.20
2014,09,24,13,29,17.10
2014,09,24,13,30,17.10
2014,09,24,13,31,17.00
2014,09,24,13,32,17.10
2014,09,24,13,33,17.20
2014,09,24,13,34,17.30
2014,09,24,13,35,17.30
2014,09,24,13,36,17.30
2014,09,24,13,37,17.30
2014,09,24,13,38,17.20
2014,09,24,13,39,17.10
2014,09,24,13,40,16.90
2014,09,24,13,41,16.80
2014,09,24,13,42,16.70
2014,09,24,13,43,16.60
2014,09,24,13,44,16.60
2014,09,24,13,45,16.60
2014,09,24,13,46,16.60
2014,09,24,13,47,16.60
2014,09,24,13,48,16.60
2014,09,24,13,49,16.70
2014,09,24,13,50,16.70
2014,09,24,13,51,16.70
2014,09,24,13,52,16.70
2014,09,24,13,53,16.70
2014,09,24,13,54,16.70
2014,09,24,13,55,16.70
2014,09,24,13,56,16.60
2014,09,24,13,57,16.60
2014,09,24,13,58,16.50
2014,09,24,13,59,16.50
2014,09,24,14,00,16.50
2014,09,24,14,01,16.40
2014,09,24,14,02,16.50
2014,09,24,14,03,16.50
2014,09,24,14,04,16.50
2014,09,24,14,05,16.50
2014,09,24,14,06,16.50
2014,09,24,14,07,16.50
2014,09,24,14,08,16.50
2014,09,24,14,09,16.60
2014,09,24,14,10,16.60
2014,09,24,14,11,16.60
2014,09,24,14,12,16.60
2014,09,24,14,13,16.70
2014,09,24,14,14,16.70
2014,09,24,14,15,16.80
2014,09,24,14,16,16.80
2014,09,24,14,17,16.90
2014,09,24,14,18,16.90
2014,09,24,14,19,16.90
2014,09,24,14,20,16.90
2014,09,24,14,21,16.90
2014,09,24,14,22,16.90
2014,09,24,14,23,16.80
2014,09,24,14,24,16.80
2014,09,24,14,25,16.70
2014,09,24,14,26,16.70
2014,09,24,14,27,16.60
2014,09,24,14,28,16.60
2014,09,24,14,29,16.60
2014,09,24,14,30,16.50
2014,09,24,14,31,16.50
2014,09,24,14,32,16.40
2014,09,24,14,33,16.40
2014,09,24,14,34,16.50
2014,09,24,14,35,16.50
2014,09,24,14,36,16.60
2014,09,24,14,37,16.70
2014,09,24,14,38,16.80
2014,09,24,14,39,16.90
2014,09,24,14,40,17.00
2014,09,24,14,41,17.00
2014,09,24,14,42,17.10
2014,09,24,14,43,17.10
2014,09,24,14,44,17.10
2014,09,24,14,45,17.00
2014,09,24,14,46,17.00
2014,09,24,14,47,17.00
2014,09,24,14,48,17.00
2014,09,24,14,49,17.10
2014,09,24,14,50,17.10
2014,09,24,14,51,17.10
2014,09,24,14,52,17.10
2014,09,24,14,53,17.10
2014,09,24,14,54,17.10
2014,09,24,14,55,17.10
2014,09,24,14,56,17.10
2014,09,24,14,57,17.10
2014,09,24,14,58,17.10
2014,09,24,14,59,17.10
2014,09,24,15,00,17.10
2014,09,24,15,01,17.10
2014,09,24,15,02,17.10
2014,09,24,15,03,17.10
2014,09,24,15,04,17.10
2014,09,24,15,05,17.10
2014,09,24,15,06,17.00
2014,09,24,15,07,16.90
2014,09,24,15,08,16.90
2014,09,24,15,09,16.80
2014,09,24,15,10,16.80
2014,09,24,15,11,16.80
2014,09,24,15,12,16.90
2014,09,24,15,13,16.90
2014,09,24,15,14,16.90
2014,09,24,15,15,16.90
2014,09,24,15,16,16.80
2014,09,24,15,17,16.80
2014,09,24,15,18,16.80
2014,09,24,15,19,16.80
2014,09,24,15,20,16.80
2014,09,24,15,21,16.80
2014,09,24,15,22,16.80
2014,09,24,15,23,16.80
2014,09,24,15,24,16.80
2014,09,24,15,25,16.80
2014,09,24,15,26,16.80
2014,09,24,15,27,16.80
2014,09,24,15,28,16.80
2014,09,24,15,29,16.80
2014,09,24,15,30,16.80
2014,09,24,15,31,16.80
2014,09,24,15,32,16.80
2014,09,24,15,33,16.80
2014,09,24,15,34,16.80
2014,09,24,15,35,16.80
2014,09,24,15,36,16.80
2014,09,24,15,37,16.90
2014,09,24,15,38,17.00
2014,09,24,15,39,17.10
2014,09,24,15,40,17.10
2014,09,24,15,41,17.10
2014,09,24,15,42,17.00
2014,09,24,15,43,16.90
2014,09,24,15,44,16.80
2014,09,24,15,45,16.70
2014,09,24,15,46,16.70
2014,09,24,15,47,16.60
2014,09,24,15,48,16.50
2014,09,24,15,49,16.50
2014,09,24,15,50,16.40
2014,09,24,15,51,16.40
2014,09,24,15,52,16.40
2014,09,24,15,53,16.40
2014,09,24,15,54,16.40
2014,09,24,15,55,16.40
2014,09,24,15,56,16.50
2014,09,24,15,57,16.50
2014,09,24,15,58,16.50
2014,09,24,15,59,16.50
2014,09,24,16,00,16.50
2014,09,24,16,01,16.50
2014,09,24,16,02,16.40
2014,09,24,16,03,16.40
2014,09,24,16,04,16.40
2014,09,24,16,05,16.40
2014,09,24,16,06,16.40
2014,09,24,16,07,16.40
2014,09,24,16,08,16.40
2014,09,24,16,09,16.40
2014,09,24,16,10,16.30
2014,09,24,16,11,16.30
2014,09,24,16,12,16.30
2014,09,24,16,13,16.20
2014,09,24,16,14,16.20
2014,09,24,16,15,16.10
2014,09,24,16,16,16.10
2014,09,24,16,17,16.00
2014,09,24,16,18,16.00
2014,09,24,16,19,15.90
2014,09,24,16,20,15.90
2014,09,24,16,21,15.90
2014,09,24,16,22,15.90
2014,09,24,16,23,15.90
2014,09,24,16,24,15.90
2014,09,24,16,25,15.90
2014,09,24,16,26,15.90
2014,09,24,16,27,15.90
2014,09,24,16,28,16.00
2014,09,24,16,29,16.00
2014,09,24,16,30,16.00
2014,09,24,16,31,16.10
2014,09,24,16,32,16.10
2014,09,24,16,33,16.10
2014,09,24,16,34,16.10
2014,09,24,16,35,16.20
2014,09,24,16,36,16.20
2014,09,24,16,37,16.30
2014,09,24,16,38,16.30
2014,09,24,16,39,16.30
2014,09,24,16,40,16.40
2014,09,24,16,41,16.40
2014,09,24,16,42,16.50
2014,09,24,16,43,16.50
2014,09,24,16,44,16.50
2014,09,24,16,45,16.50
2014,09,24,16,46,16.60
2014,09,24,16,47,16.60
2014,09,24,16,48,16.60
2014,09,24,16,49,16.60
2014,09,24,16,50,16.60
2014,09,24,16,51,16.60
2014,09,24,16,52,16.60
2014,09,24,16,53,16.50
2014,09,24,16,54,16.50
2014,09,24,16,55,16.50
2014,09,24,16,56,16.50
2014,09,24,16,57,16.50
2014,09,24,16,58,16.50
2014,09,24,16,59,16.40
2014,09,24,17,00,16.40
2014,09,24,17,01,16.40
2014,09,24,17,02,16.40
2014,09,24,17,03,16.40
2014,09,24,17,04,16.40
2014,09,24,17,05,16.40
2014,09,24,17,06,16.40
2014,09,24,17,07,16.50
2014,09,24,17,08,16.50
2014,09,24,17,09,16.60
2014,09,24,17,10,16.70
2014,09,24,17,11,16.70
2014,09,24,17,12,16.80
2014,09,24,17,13,16.90
2014,09,24,17,14,16.90
2014,09,24,17,15,17.00
2014,09,24,17,16,17.10
2014,09,24,17,17,17.10
2014,09,24,17,18,17.20
2014,09,24,17,19,17.20